Tracking 27112 objects as of 27-Mar-2023
HD Live streaming from Space Station
objects crossing your sky now

STARLINK-3858

Track STARLINK-3858 now!
10-day predictions
STARLINK-3858 is classified as:


NORAD ID: 52553
Int'l Code: 2022-051W
Perigee: 546.2 km
Apogee: 547.7 km
Inclination: 53.2 °
Period: 95.4 minutes
Semi major axis: 6917 km
RCS: Unknown
Launch date: May 13, 2022
Source: United States (US)
Launch site: AIR FORCE WESTERN TEST RANGE (AFWTR)
Your satellite tracking list
Your tracking list is empty




NASA's NSSDC Master Catalog

Two Line Element Set (TLE):
1 52553U 22051W   23085.88382907  .00017426  00000-0  11110-2 0  9999
2 52553  53.2140 292.0714 0001138  96.1057 264.0065 15.08816071 48588
Source of the keplerian elements: AFSPC